Theta_e
317 310 309 310 317 314 320 322 318 317 315 315 317 321 326 327 336 337 327 332 335 336 339 339 341 340 341 340 339 338 337 338 339 339 338 339 339 337 336 336 337 338 338 336 335 333 333 331 330
312 306 309 307 315 318 317 314 317 319 315 312 316 318 322 327 326 328 330 333 335 337 338 340 340 340 340 339 338 337 337 337 338 338 337 337 336 336 337 338 337 335 334 333 331 329 328 330 331
308 307 309 312 311 314 313 308 315 313 312 311 313 311 316 322 324 328 330 334 336 337 339 340 340 341 340 338 337 337 337 337 337 337 337 337 337 337 336 335 333 332 330 328 326 325 325 325 326
306 306 305 310 312 310 309 305 305 307 307 305 310 314 311 314 325 328 331 336 338 339 339 340 341 340 338 337 336 335 335 335 335 336 335 335 335 334 333 331 329 327 325 322 317 309 307 306 307
305 303 307 308 308 308 305 305 303 307 308 308 309 312 313 314 322 329 333 336 339 339 339 340 339 337 336 336 334 334 334 334 334 334 334 333 332 331 330 328 325 319 313 309 306 304 304 303 303
305 303 306 306 307 306 306 305 304 305 305 308 309 310 311 316 324 330 335 336 337 339 340 339 337 337 335 334 333 333 332 332 333 333 332 331 330 328 325 323 319 315 310 306 305 303 302 302 302
304 305 307 304 304 304 305 303 307 308 305 307 308 311 310 314 325 332 333 335 336 337 338 337 336 336 334 333 332 332 331 331 330 329 328 326 325 324 320 317 313 309 307 305 303 302 302 302 302
302 304 305 304 306 306 304 304 304 306 307 304 308 310 310 309 325 328 332 333 335 336 337 336 335 335 333 331 330 330 329 328 327 326 324 323 321 320 316 313 313 310 308 304 302 301 301 301 301
299 303 305 306 306 306 304 304 304 303 306 305 306 307 309 317 325 327 329 332 332 335 336 335 335 334 332 330 329 328 328 326 325 324 322 320 317 314 310 308 307 307 305 303 302 301 301 301 301
301 304 305 303 305 305 306 305 307 304 304 305 307 308 317 322 324 326 327 328 328 333 334 333 334 333 331 329 327 327 325 325 323 322 319 316 313 308 305 304 302 302 302 302 301 301 301 301 301
301 306 306 303 303 303 304 306 306 304 304 304 306 308 319 321 323 326 327 328 329 329 330 331 332 332 330 328 327 326 324 323 321 320 317 312 307 303 302 302 302 301 301 301 300 300 300 300 300
303 303 304 306 304 304 304 304 305 303 307 305 303 308 318 320 323 325 326 326 327 327 328 329 329 330 329 327 326 325 323 322 320 318 314 308 302 301 301 301 301 300 300 300 300 300 300 299 299
306 307 303 303 303 304 302 303 304 303 303 302 302 308 317 320 322 324 325 325 325 325 325 327 327 328 327 326 325 324 323 321 319 315 311 304 301 301 301 300 300 300 300 299 299 299 299 299 299
307 306 308 308 306 302 303 304 302 305 303 302 303 306 309 318 320 322 323 324 324 324 324 323 326 325 325 325 324 323 322 321 318 313 307 302 301 301 301 301 300 300 299 299 299 298 299 298 298
308 309 309 309 306 305 303 306 305 303 302 304 303 302 305 312 317 320 322 323 323 323 321 321 323 324 324 323 322 322 322 321 317 312 303 302 302 301 301 300 300 299 299 299 299 299 299 298 298
307 307 308 307 309 307 305 309 307 306 302 304 305 304 302 307 315 318 320 321 321 321 319 318 321 323 323 322 321 320 320 320 317 310 303 302 302 301 300 300 299 299 299 299 298 298 298 297 297
303 305 305 305 305 307 308 310 307 306 304 305 305 305 304 303 307 315 318 320 320 320 318 317 319 321 321 320 320 319 320 319 317 311 302 301 301 301 300 300 299 299 299 298 298 298 297 297 297
301 304 305 305 304 306 307 308 307 306 305 306 306 307 307 307 305 308 314 318 319 320 319 317 317 319 320 318 317 318 318 317 316 310 302 301 301 301 300 300 299 299 298 298 298 297 297 296 296
305 303 304 305 304 306 307 307 307 306 306 305 306 306 307 306 305 304 308 313 316 318 318 317 316 316 315 314 313 312 314 315 313 309 303 301 301 301 300 300 299 298 298 298 297 296 296 295 295
300 301 307 306 304 305 306 306 306 305 306 307 307 307 306 303 300 300 300 307 313 315 317 316 315 314 315 313 313 312 310 309 310 309 304 301 301 300 300 300 299 298 297 297 296 296 295 295 295
293 295 300 305 305 304 305 306 306 304 303 304 304 305 305 304 304 302 299 299 306 312 314 315 315 315 313 312 310 310 309 306 306 307 304 301 300 300 300 299 298 298 297 297 296 296 295 294 294
296 294 294 298 301 309 305 308 305 305 305 305 305 304 304 302 301 302 302 299 300 305 310 314 314 313 312 311 309 309 308 306 305 304 303 302 301 300 300 298 298 297 297 296 296 295 295 294 293
295 295 295 300 304 306 307 309 305 303 304 304 304 304 304 305 304 305 303 302 302 302 305 310 313 312 311 310 310 308 309 307 305 303 302 301 300 300 299 298 297 296 296 296 295 295 294 293 293
296 296 296 295 300 301 304 308 304 302 304 303 303 304 304 304 304 303 304 303 302 302 303 307 311 311 311 309 308 307 308 305 303 301 299 299 300 299 298 298 297 296 296 295 295 294 293 293 292
297 296 290 295 299 300 300 305 306 301 301 302 303 303 303 303 304 304 303 302 301 299 301 304 309 310 309 307 307 306 307 305 304 301 300 297 297 297 297 297 296 296 295 295 294 293 292 292 292
297 296 290 294 301 301 299 302 301 301 301 300 301 302 302 300 300 301 301 301 300 300 300 302 306 308 307 306 306 305 305 305 303 302 301 300 299 298 298 297 296 296 295 294 293 292 292 291 291
300 299 297 300 290 304 302 303 302 300 300 302 302 299 299 299 297 297 296 295 297 298 298 301 304 306 305 305 304 304 304 303 302 302 302 300 299 299 299 297 296 295 294 293 292 292 291 290 290
299 298 299 300 301 305 301 301 301 294 295 296 292 295 293 293 292 292 292 292 291 293 296 298 302 304 304 303 303 302 302 302 301 300 300 300 300 299 298 297 295 294 293 292 292 291 290 289 289
299 300 297 301 301 296 300 305 291 289 285 285 289 292 291 290 289 288 287 287 286 290 293 296 299 301 302 301 301 300 298 298 299 299 300 300 299 299 297 296 295 293 292 291 291 290 289 289 288
301 303 302 294 297 296 297 302 290 290 288 293 294 291 290 289 286 287 287 285 287 287 288 292 296 299 299 299 299 297 297 297 297 299 299 298 298 297 296 295 294 292 291 290 290 289 289 288 288
Wind_Speed
10 6 5 2 3 2 5 7 2 4 3 4 4 4 10 5 5 4 5 18 20 33 32 30 29 28 26 25 23 21 20 19 18 16 16 17 18 18 18 18 17 16 16 13 12 11 10 9 8
9 7 3 1 3 3 9 5 11 12 5 1 0 2 3 7 2 2 8 10 24 32 30 30 29 27 26 25 24 24 22 19 19 17 16 17 17 18 20 19 16 13 12 12 13 12 10 8 8
8 6 3 4 4 12 7 6 16 6 8 2 3 2 3 4 2 7 7 20 26 34 31 29 29 30 29 26 25 22 20 21 20 20 19 19 19 20 19 16 14 14 15 14 13 11 9 8 7
7 3 2 3 10 11 10 5 5 3 5 6 4 6 4 4 4 7 12 24 28 28 31 31 31 29 25 23 21 19 20 20 20 19 19 20 20 19 18 16 16 16 15 13 12 9 8 6 6
2 2 3 4 10 7 5 3 5 4 2 5 6 4 4 3 6 11 22 27 31 30 32 31 30 27 24 22 21 22 23 22 21 21 21 21 20 20 19 18 16 15 13 11 9 7 6 5 4
2 2 2 13 16 7 5 7 4 5 4 4 4 2 5 2 9 17 25 27 29 32 34 30 28 26 24 22 22 23 23 24 23 23 22 21 20 20 19 17 16 14 12 10 8 7 6 4 3
5 4 11 5 11 12 12 8 11 16 5 9 4 4 3 3 14 20 25 29 29 30 32 30 26 25 26 24 22 23 23 23 23 23 22 20 20 19 18 16 15 13 11 10 8 6 5 4 3
4 3 5 7 10 18 7 9 6 12 16 1 9 6 6 4 21 19 25 28 28 30 32 30 27 26 27 22 24 23 23 23 23 22 22 22 20 19 18 16 14 13 12 10 7 6 5 5 4
3 4 16 18 16 19 3 6 4 2 5 4 8 5 1 8 22 23 22 24 27 31 34 32 30 29 27 24 23 24 24 23 23 23 23 24 22 20 17 15 14 13 12 9 7 5 3 3 2
6 8 19 6 15 9 12 7 5 4 6 4 3 2 5 17 23 24 25 25 25 27 34 34 34 31 28 25 24 26 26 26 25 24 23 21 18 16 16 15 14 13 11 8 6 5 3 2 2
6 22 15 3 8 7 5 5 3 6 5 8 10 5 9 14 19 20 23 28 31 25 32 36 35 33 31 28 26 27 27 26 25 23 22 21 19 18 16 14 13 11 9 7 5 4 4 3 2
10 14 15 16 5 4 7 3 7 8 8 1 6 5 9 15 17 20 24 26 27 31 35 37 38 36 32 31 29 29 29 27 25 24 23 22 20 18 16 14 12 11 9 8 7 5 3 2 2
16 18 5 5 12 15 4 12 7 11 10 4 5 6 10 12 16 22 22 21 24 25 33 37 38 37 35 33 33 32 31 30 27 25 23 21 20 18 16 14 12 10 9 8 7 6 4 2 1
6 6 19 18 16 8 10 15 7 21 9 6 6 9 8 12 16 16 20 25 29 30 32 35 40 39 38 36 34 33 33 31 29 27 25 23 20 18 16 15 13 11 10 8 6 5 4 2 1
17 16 15 16 7 6 9 23 29 15 6 13 12 9 8 13 12 19 29 27 27 28 28 38 42 42 40 38 35 35 34 32 31 28 27 24 22 20 18 17 15 13 11 9 7 6 4 3 2
6 5 13 12 19 11 9 28 15 17 11 16 17 16 12 14 14 26 27 29 28 26 31 33 41 44 42 42 38 36 36 34 32 29 27 25 23 21 20 18 17 15 13 11 9 7 5 4 3
13 21 21 15 9 7 22 28 14 7 13 18 18 18 16 15 12 22 25 32 32 35 28 31 40 44 43 40 39 36 37 35 34 31 29 27 25 24 22 20 18 16 14 12 11 9 7 5 4
21 22 19 21 7 15 19 22 15 7 12 18 19 20 20 19 20 22 28 34 34 36 34 31 36 42 44 40 37 36 38 38 36 35 33 29 28 26 25 22 20 18 17 16 13 11 8 6 4
20 18 24 16 14 10 18 21 18 12 11 12 11 13 14 15 12 17 23 27 25 30 32 36 37 41 40 39 37 34 41 43 40 38 36 34 31 30 27 24 22 21 20 17 14 11 8 5 3
22 17 22 19 8 17 19 25 17 12 15 16 16 17 15 9 6 7 15 22 28 30 35 33 37 37 44 41 43 27 32 35 40 39 36 35 34 31 28 27 26 23 21 19 16 13 8 6 4
20 23 19 19 7 21 9 22 16 6 6 8 10 15 12 14 14 11 10 19 24 27 33 36 40 43 44 41 33 29 27 20 32 38 40 39 34 31 31 29 26 25 23 20 17 15 11 8 5
19 19 22 20 16 20 14 17 13 18 20 14 16 11 12 9 8 10 10 8 21 30 32 34 34 35 38 39 38 40 33 25 34 37 43 41 37 35 32 29 27 26 24 22 20 16 14 10 9
15 17 17 17 13 12 11 9 9 12 14 17 21 20 19 19 16 19 14 15 26 27 33 35 34 35 38 42 42 41 34 28 28 32 40 42 39 37 35 32 29 28 26 22 20 18 15 13 11
11 10 2 1 5 17 17 16 13 8 14 13 15 19 20 19 16 13 15 21 22 29 31 32 33 37 41 43 43 42 39 31 32 33 35 38 41 39 36 34 32 28 26 24 21 18 16 14 13
13 5 2 5 10 18 18 11 9 3 12 19 22 22 20 15 13 14 14 10 12 20 27 28 31 33 39 41 42 43 41 40 42 40 37 37 40 41 40 37 33 31 28 24 22 20 18 16 16
13 12 6 8 7 11 18 15 20 19 15 11 18 16 10 2 3 5 6 5 8 17 23 27 30 31 37 41 43 41 41 41 38 41 39 42 45 44 44 39 35 31 28 25 22 20 18 17 16
4 11 11 2 2 1 2 5 6 4 10 19 20 4 3 5 5 5 5 6 9 11 19 27 27 28 33 38 37 39 40 39 38 40 41 40 40 43 42 40 36 31 28 25 22 20 19 17 16
4 5 4 3 5 6 0 3 2 8 9 10 9 7 7 6 6 7 7 7 9 14 16 22 27 31 33 32 33 34 41 41 39 40 40 40 39 39 39 39 35 32 28 25 22 20 18 17 17
4 5 4 4 3 3 3 2 3 6 5 6 6 6 6 7 7 7 7 10 13 11 9 14 21 24 26 30 30 31 26 31 40 39 39 38 36 37 38 39 36 32 29 25 23 20 19 19 18
6 5 6 5 4 1 4 0 3 5 5 8 9 9 7 6 6 9 9 8 10 11 10 3 8 15 21 26 27 28 31 34 32 35 36 36 35 34 35 36 35 33 30 26 24 23 21 20 20
Wind_Direction
201 212 178 107 125 73 246 241 231 203 218 204 150 162 204 199 175 208 334 163 164 166 169 167 172 171 167 164 158 154 152 148 144 150 148 149 147 144 141 147 141 134 124 133 144 140 121 123 123
191 168 127 98 137 181 243 201 224 208 196 52 146 193 219 233 219 276 130 174 164 164 168 167 171 170 168 164 158 154 154 149 153 144 146 144 141 141 137 138 143 146 144 141 123 113 114 115 112
179 171 126 168 179 218 235 206 232 227 239 218 258 215 226 222 204 186 181 163 166 164 169 168 169 168 165 163 159 156 155 159 162 156 146 138 137 134 137 144 156 150 127 118 114 119 119 125 129
167 79 31 171 223 240 219 217 213 231 213 176 192 267 273 240 180 185 168 157 167 164 169 168 166 164 160 165 170 165 161 161 166 161 162 164 164 159 159 156 142 128 125 121 122 125 127 129 124
127 59 200 221 237 243 235 240 175 215 212 177 166 236 250 234 185 166 160 160 164 167 171 169 166 169 163 166 166 162 162 162 162 162 161 162 160 157 150 142 138 135 132 129 130 131 130 131 123
161 115 185 224 229 235 232 195 195 230 230 181 182 176 245 236 184 167 164 165 169 165 171 172 177 177 164 168 168 165 166 164 162 165 163 156 153 149 148 144 140 137 132 133 137 141 142 140 136
187 154 229 226 237 244 237 163 197 225 177 228 148 167 225 236 185 167 170 172 175 173 175 176 176 177 169 169 173 171 172 166 166 167 162 160 157 154 152 148 144 141 137 133 137 132 128 123 116
160 172 213 208 216 248 216 185 181 198 240 137 166 220 248 197 173 171 174 178 177 179 181 180 180 180 174 180 176 176 177 175 172 169 166 166 160 158 157 151 144 140 136 137 143 134 126 114 109
128 206 234 224 208 223 136 191 207 192 195 221 193 188 274 154 160 164 166 175 182 184 187 185 186 184 183 182 184 180 182 179 175 175 173 171 173 170 162 159 148 143 142 143 141 140 137 119 103
176 223 239 211 220 217 231 188 201 172 197 229 230 152 105 156 165 173 177 182 186 183 189 192 189 188 185 186 194 184 185 184 184 185 181 180 177 172 169 167 162 156 152 150 153 158 159 144 121
214 234 232 244 226 222 246 221 216 176 207 217 207 158 148 175 187 189 192 192 188 187 188 196 194 193 191 188 189 189 193 191 190 192 189 185 180 178 176 174 172 170 170 164 163 158 152 142 124
254 244 239 250 264 253 245 265 246 197 222 169 208 145 160 183 196 201 200 198 194 193 196 199 200 197 196 193 194 197 198 198 196 196 194 190 186 185 183 182 178 177 176 174 170 167 161 156 142
241 249 226 228 241 250 265 247 239 237 233 196 125 158 183 190 206 212 212 204 201 203 199 201 204 202 201 197 197 199 201 205 203 200 199 195 193 191 188 188 187 186 184 182 179 171 159 153 138
248 256 252 251 259 250 237 256 203 246 224 235 202 215 203 195 209 204 213 213 207 206 206 204 206 207 206 206 207 204 204 207 206 205 204 201 199 199 197 196 195 194 192 190 186 174 165 171 184
251 263 265 250 224 245 214 257 242 248 204 233 237 236 225 219 188 206 211 214 214 210 204 210 207 208 209 210 210 211 206 208 209 209 205 203 203 203 202 200 199 199 197 196 195 192 191 202 218
268 246 246 238 226 222 183 259 254 228 192 228 240 252 241 227 204 213 212 209 211 207 206 206 210 209 208 210 209 212 209 208 211 212 210 209 206 206 204 203 202 198 198 200 200 200 208 219 230
243 247 240 258 218 208 209 254 243 194 213 227 230 229 234 237 215 218 212 211 208 207 202 203 207 210 210 209 209 212 212 212 212 212 213 212 211 210 208 206 204 203 204 206 203 203 210 221 258
235 229 244 242 210 211 228 245 232 218 205 220 225 230 234 234 231 219 212 215 212 211 206 202 206 209 212 211 209 210 213 215 214 212 212 212 214 212 210 207 207 207 206 206 207 206 208 222 254
269 250 255 248 228 245 237 244 239 226 242 236 234 234 237 236 237 220 222 220 209 206 200 203 202 206 201 203 202 206 209 212 212 214 213 212 213 213 210 208 208 207 210 211 209 205 206 220 250
250 276 255 254 232 218 237 248 249 215 235 233 233 240 238 241 237 214 221 210 205 204 206 202 205 200 204 200 204 201 204 213 214 213 214 215 213 210 210 212 209 208 207 208 209 210 199 204 215
244 244 255 272 245 232 228 248 238 232 234 237 226 235 233 229 239 231 224 212 207 205 205 206 208 203 203 201 191 196 201 207 211 214 215 213 211 211 213 213 211 209 210 212 213 213 209 199 196
260 246 243 256 275 243 182 255 229 226 230 235 247 234 243 227 236 236 224 212 207 218 215 211 209 203 202 197 194 194 198 196 205 207 210 211 209 210 213 213 211 212 211 210 213 212 214 209 199
244 252 249 244 247 286 201 236 235 207 222 226 241 246 245 244 230 238 231 219 226 223 218 213 206 202 201 200 202 197 202 204 201 199 206 209 206 209 209 209 210 209 209 211 212 211 212 215 212
250 252 256 307 254 260 258 223 222 176 205 219 233 238 236 234 237 233 231 227 223 222 216 209 200 201 204 201 202 201 202 195 192 193 195 201 205 206 208 207 208 208 208 209 211 212 214 216 218
218 150 253 216 225 243 240 242 250 233 211 221 232 234 241 233 225 226 224 216 212 203 208 205 198 199 200 200 201 203 202 202 199 194 191 190 197 203 205 205 203 205 208 209 210 211 213 215 216
203 179 167 209 207 236 228 238 247 234 229 226 231 236 249 332 276 279 277 253 231 222 212 205 203 201 196 198 203 204 202 203 200 199 195 198 200 202 205 203 205 206 205 206 208 211 215 215 216
180 193 205 359 310 218 187 284 320 166 223 233 239 219 30 29 34 332 326 326 313 282 234 212 206 206 201 201 198 199 201 200 199 202 205 202 203 206 205 204 203 203 203 206 207 211 213 214 214
176 160 166 178 204 196 2 293 253 353 320 9 23 21 351 340 341 339 340 331 321 306 277 236 218 208 206 200 200 201 198 198 200 202 202 204 204 205 202 201 201 200 201 203 206 209 210 211 210
170 191 199 146 211 139 107 295 304 290 307 319 335 8 345 344 340 337 332 334 333 332 310 247 225 214 206 200 198 197 198 195 199 200 202 203 201 200 200 199 198 198 198 200 203 207 208 208 207
242 258 198 153 225 86 132 192 1 313 315 335 4 10 356 355 346 340 341 336 342 347 356 355 211 207 205 202 197 195 192 194 199 198 199 198 194 195 196 195 195 195 197 199 202 203 206 209 209